Location: Newark
(43.0658°N, 122.2322°W)
Time: 09:28:08
(UTC+00:00)

STARLINK-1724 - Pass Details

Date: 21 September 2020
Orbit: 378 x 381 km, 53.0° (Epoch: 24 October)

Event Time Altitude Azimuth Distance (km) Brightness Sun altitude
Exits shadow 12:00:23 15° 351° (N) 1,130 5.3 -21.4°
Drops below altitude 10° 12:02:18 10° 28° (NNE) 1,403 6.4 -21.0°
Sets 12:04:58 0° 53° (NE) 2,257 8.1 -20.6°
